Location: Eastchurch
(51.4000°N, 0.8667°E)
Time: 00:31:20
(UTC+00:00)

YAOGAN 1 - Pass Details

Date: 19 January 2026
Orbit: 605 x 607 km, 97.8° (Epoch: 18 February)

Event Time Altitude Azimuth Distance (km) Brightness Sun altitude
Rises 17:20:34 0° 137° (SE) 2,857 5.8 -8.7°
Reaches altitude 10° 17:22:54 10° 127° (SE) 1,958 4.8 -9.1°
Maximum altitude 17:26:39 31° 65° (ENE) 1,072 3.2 -9.6°
Drops below altitude 10° 17:30:26 10° 3° (N) 1,970 4.9 -10.2°
Sets 17:32:47 0° 354° (N) 2,879 5.9 -10.5°
